Regional Weather Roundup
Issued by NWS

Home | Current Version | Previous Version | Graphics & Text | Print | Product List | Glossary On
Versions: 1 2 3 4 5 6 7 8 9 10 11 12 13 14 15 16 17 18 19 20 21 22 23 24 25 26 27 28 29 30 31 32 33 34 35 36 37 38 39 40 41 42 43 44 45 46 47 48 49 50
000
ASUS45 KBOU 231407
RWRCO

WEATHER ROUNDUP FOR COLORADO
NATIONAL WEATHER SERVICE DENVER/BOULDER CO
800 AM MDT TUE SEP 23 2014

NOTE: "FAIR" INDICATES FEW OR NO CLOUDS BELOW 12000 FEET WITH NO
SIGNIFICANT WEATHER AND/OR OBSTRUCTIONS TO VISIBILITY.

COZ001>005-013-030-031-231500-
...NORTHWEST COLORADO...

CITY           SKY/WX    TMP DP  RH WIND       PRES   REMARKS
CRAIG          CLOUDY    53  49  86 N3        30.26R
HAYDEN         CLOUDY    52  46  82 CALM      30.26F
MEEKER         MOSUNNY   51  48  89 N3        30.28R
MOUNT WERNER   NOT AVBL
STEAMBOAT SPGS CLOUDY    50  48  93 CALM      30.28R
WALDEN         CLOUDY    46  45  93 N8        30.33R
$$

COZ006>008-011-231500-
...WEST CENTRAL VALLEYS...

CITY           SKY/WX    TMP DP  RH WIND       PRES   REMARKS
GRAND JUNCTION MOSUNNY   59  54  83 E7        30.20R
MONTROSE       CLOUDY    55  49  80 S10       30.30R
EAGLE          MOSUNNY   52  50  93 CALM      30.32R
RIFLE          MOSUNNY   54  51  90 CALM      30.25R
DELTA          RAIN      60  55  85 SE3       30.26R
NUCLA          MOSUNNY   52  43  71 SE7       30.32R
$$

COZ017>023-064>068-231500-
...SOUTHWEST COLORADO...

CITY           SKY/WX    TMP DP  RH WIND       PRES   REMARKS
DURANGO        SUNNY     49  43  80 CALM      30.33R
CORTEZ         SUNNY     47  45  93 CALM      30.29R
PAGOSA SPRINGS SUNNY     48  47  97 CALM      30.39R
TELLURIDE      NOT AVBL
WOLF CREEK PAS SUNNY     37  32  81 SW21      30.59S
$$

COZ009-010-012-014-032>034-037-058>063-231500-
...CENTRAL COLORADO...

CITY           SKY/WX    TMP DP  RH WIND       PRES   REMARKS
ASPEN          CLOUDY    48  43  82 SE3       30.35R
BUENA VISTA    MOSUNNY   47  43  85 NW3       30.35R
COPPER MTN     CLOUDY    45  36  70 W20G28    30.55R
BERTHOUD PASS  FAIR      34  32  93 NW35G47   30.51F WCI  19
COTTONWOOD PAS PTSUNNY   52  37  58 N5        30.43S
GUNNISON       CLOUDY    46  43  87 N5        30.40S
KREMMLING      CLOUDY    52  46  82 CALM      30.33S
LEADVILLE      PTSUNNY   48  38  68 NW7       30.44R
MONARCH PASS   LGT RAIN  37  36  93 W26G33    30.65R VSB<1/4
SALIDA         CLOUDY    52  44  73 N5        30.39R
SUNLIGHT       PTSUNNY   45  43  93 CALM      30.51F FOG
WILKERSON PASS NOT AVBL
$$

COZ069>075-231500-
...SAN LUIS VALLEY/SANGRE DE CRISTO MOUNTAINS...

CITY           SKY/WX    TMP DP  RH WIND       PRES   REMARKS
ALAMOSA        MOSUNNY   44  42  93 CALM      30.35S
LA VETA PASS   CLOUDY    45  43  93 CALM      30.48R
SAGUACHE       PTSUNNY   46  41  81 NW7       30.38R
$$

COZ035-036-038>040-231500-
...NORTHERN COLORADO FRONT RANGE...

CITY           SKY/WX    TMP DP  RH WIND       PRES   REMARKS
DENVER INTL AP PTSUNNY   61  48  62 SW9       30.14R
DMNS CITY PARK   N/A     60  48  63 SW6       30.15R
AURORA         PTSUNNY   59  49  68 SW6       30.17R
FRONT RANGE AP PTSUNNY   64  50  59 SW8       30.15S
ERIE MUNI ARPT NOT AVBL
BOULDER MUN AP CLOUDY    61  50  67 SW5       30.13S
CENTENNIAL     PTSUNNY   60  45  57 SW10      30.17R
BROOMFIELD     PTSUNNY   63  46  55 CALM      30.15R
FORT COLLINS   PTSUNNY   57  48  72 S3        30.14R
LONGMONT       PTSUNNY   61  51  70 CALM      30.14R HAZE
$$

COZ041-046-047-076>085-087-088-231500-
...PIKES PEAK/PALMER DIVIDE AND SOUTHERN FOOTHILLS...

CITY           SKY/WX    TMP DP  RH WIND       PRES   REMARKS
COLO. SPRINGS  MOSUNNY   59  46  62 N3        30.21R
A. F. ACADEMY  SUNNY     54  44  70 NW8       30.22R
ELLICOTT       NOT AVBL
FALCON         SUNNY     59  47  65 CALM      30.25R
FORT CARSON    SUNNY     56  44  64 N6        30.18R
LIMON          SUNNY     54  50  86 NW6       30.15S
MONUMENT HILL  PTSUNNY   54  41  62 SW7       30.24R
TRINIDAD       SUNNY     61  51  70 W18       30.19R
$$

COZ042>045-048>051-090-091-231500-
...NORTHEAST COLORADO...

CITY           SKY/WX    TMP DP  RH WIND       PRES   REMARKS
GREELEY ARPT   PTSUNNY   57  46  67 NW3       30.12S
AKRON          CLOUDY    60  54  80 W7        30.09R
BURLINGTON     MOSUNNY   58  55  90 SW3       30.09S
WRAY           PTSUNNY   59  57  91 SW9       30.05S
STERLING       PTSUNNY   59  59 100 CALM      30.06S
HOLYOKE        PTSUNNY   61  55  82 CALM      30.04R
FORT MORGAN    PTSUNNY   56  53  88 W5        30.11R
$$

COZ086-089-092>099-231500-
...SOUTHEAST COLORADO...

CITY           SKY/WX    TMP DP  RH WIND       PRES   REMARKS
PUEBLO         SUNNY     56  49  77 SW9       30.13R
LA JUNTA       SUNNY     60  55  83 SW10      30.10R
LAMAR          MOSUNNY   58  55  90 W6        30.06R
SPRINGFIELD      N/A     65  59  81 SW12G17   30.11R
$$



USA.gov is the U.S. government's official web portal to all federal, state and local government web resources and services.